K4MDI Weather Reports


time (UTC)temp
F
wind
direction
speed
knots
gust
knots
rain 1hr
in
rain 24hr
in
rain mn
in
humidity
%
barometer
mb
20260906083020 69 0.0 0.0 0.00 0.00 0.00
20260906082019 0 0.0 0.0 0.00 0.00 0.00
20260906081043 0 0.0 0.0 0.00 0.00 0.00
20260906080602 0 0.0 0.0 0.00 0.00 0.00
20260906075519 0 0.0 0.0 0.00 0.00 0.00
20260906074521 0 0.0 0.0 0.00 0.00 0.00
20260906074040 0 0.0 0.0 0.00 0.00 0.00
20260906073019 0 0.0 0.0 0.00 0.00 0.00
20260906072128 0 0.0 0.0 0.00 0.00 0.00
20260906071513 68 0.0 0.0 0.00 0.00 0.00 5 1011.3
20260906070519 70 0.0 0.0 0.00 0.00 0.00 3 1011.7
20260906065519 70 0.0 0.0 0.00 0.00 0.00 3 1011.7
20260906064519 70 0.0 0.0 0.00 0.00 0.00 3 1011.6
20260906063519 70 0.0 0.0 0.00 0.00 0.00 3 1011.8
20260906062519 71 0.0 0.0 0.00 0.00 0.00 4 1012.0
20260906061519 71 0.0 0.0 0.00 0.00 0.00 3 1012.2
20260906060539 71 0.0 0.0 0.00 0.00 0.00 4 1012.2
20260906055519 71 0.0 0.0 0.00 0.00 0.00 4 1012.5
20260906054519 71 0.0 0.0 0.00 0.00 0.00 4 1012.5
20260906053519 71 0.0 0.0 0.00 0.00 0.00 6 1012.6
20260906052519 71 0.0 0.0 0.00 0.00 0.00 6 1012.6
20260906051519 71 0.0 0.0 0.00 0.00 0.00 5 1012.6
20260906050519 71 0.0 0.0 0.00 0.00 0.00 8 1012.8
20260906045539 71 0.0 0.0 0.00 0.00 0.00 9 1012.7
20260906044539 71 0.0 0.0 0.00 0.00 0.00 10 1012.7
20260906043519 71 0.0 0.0 0.00 0.00 0.00 11 1012.8
20260906042519 72 0.0 0.0 0.00 0.00 0.00 11 1012.5
20260906041559 72 0.0 0.0 0.00 0.00 0.00 11 1012.7
20260906040519 72 0.0 0.0 0.00 0.00 0.00 11 1012.7
20260906035519 72 0.0 0.0 0.00 0.00 0.00 13 1012.8
20260906034539 72 0.0 0.0 0.00 0.00 0.00 14 1012.8
20260906033519 72 0.0 0.0 0.00 0.00 0.00 13 1012.9
20260906032519 72 0.0 0.0 0.00 0.00 0.00 16 1012.4
20260906031519 72 0.0 0.0 0.00 0.00 0.00 21 1012.7
20260906030539 72 0.0 0.0 0.00 0.00 0.00 22 1012.9
20260906025519 73 0.0 0.0 0.00 0.00 0.00 24 1012.4
20260906024519 73 0.0 0.0 0.00 0.00 0.00 29 1012.5
20260906023518 73 0.0 0.0 0.00 0.00 0.00 29 1012.3
20260906022519 73 0.0 0.0 0.00 0.00 0.00 30 1012.0
20260906021519 73 0.0 0.0 0.00 0.00 0.00 33 1012.1
20260906020519 73 0.0 0.0 0.00 0.00 0.00 34 1012.2
20260906015519 74 0.0 0.0 0.00 0.00 0.00 36 1012.2
20260906014519 74 0.0 0.0 0.00 0.00 0.00 40 1012.4
20260906013541 74 0.0 0.0 0.00 0.00 0.00 46 1012.0
20260906012559 74 0.0 0.0 0.00 0.00 0.00 47 1011.9
20260906011519 75 0.0 0.0 0.00 0.00 0.00 51 1011.7
20260906010519 75 0.0 0.0 0.00 0.00 0.00 56 1011.8
20260906005518 75 0.0 0.0 0.00 0.00 0.00 58 1011.6
20260906004519 76 0.0 0.0 0.00 0.00 0.00 60 1011.5
20260906003519 76 0.0 0.0 0.00 0.00 0.00 64 1011.1
20260906002518 77 0.0 0.0 0.00 0.00 0.00 67
20260906001519 78 0.0 0.0 0.00 0.00 0.00 70
20260906000519 78 0.0 0.0 0.00 0.00 0.00 71
20260905235519 79 0.0 0.0 0.00 0.00 0.00 72 1011.0
20260905234518 79 0.0 0.0 0.00 0.00 0.00 73 1010.9
20260905233519 80 0.0 0.0 0.00 0.00 0.00 73 1010.9
20260905232518 81 0.0 0.0 0.00 0.00 0.00 72
20260905231518 82 0.0 0.0 0.00 0.00 0.00 72
20260905230518 82 0.0 0.0 0.00 0.00 0.00 72
20260905225539 82 0.0 0.0 0.00 0.00 0.00 71
20260905224518 83 0.0 0.0 0.00 0.00 0.00 71
20260905223558 83 0.0 0.0 0.00 0.00 0.00 71
20260905222539 83 0.0 0.0 0.00 0.00 0.00 71
20260905221519 83 0.0 0.0 0.00 0.00 0.00 71
20260905220518 83 0.0 0.0 0.00 0.00 0.00 71
20260905215518 84 0.0 0.0 0.00 0.00 0.00 71
20260905214540 84 0.0 0.0 0.00 0.00 0.00 70
20260905213558 84 0.0 0.0 0.00 0.00 0.00 69
20260905212518 85 0.0 0.0 0.00 0.00 0.00 69
20260905211518 85 0.0 0.0 0.00 0.00 0.00 66
20260905210519 85 0.0 0.0 0.00 0.00 0.00 67
20260905205538 83 0.0 0.0 0.00 0.00 0.00 70
20260905204558 83 0.0 0.0 0.00 0.00 0.00 68
20260905203520 84 0.0 0.0 0.00 0.00 0.00 68
20260905202518 83 0.0 0.0 0.00 0.00 0.00 66
20260905201538 84 0.0 0.0 0.00 0.00 0.00 66
20260905200518 84 0.0 0.9 0.00 0.00 0.00 65
20260905195519 84 0.0 0.0 0.00 0.00 0.00 65
20260905194520 85 0.0 0.0 0.00 0.00 0.00 63
20260905193518 86 0.0 0.0 0.00 0.00 0.00 60
20260905192518 89 0.0 1.7 0.00 0.00 0.00 57 1012.2
20260905191538 92 0.0 2.6 0.00 0.00 0.00 52 1011.9
20260905190540 97 113 0.9 2.6 0.00 0.00 0.00 47 1011.9
20260905185520 99 0.0 0.0 0.00 0.00 0.00 46 1011.6
20260905184518 102 0.0 0.0 0.00 0.00 0.00 43 1011.4
20260905183520 103 0.0 2.6 0.00 0.00 0.00 41 1011.5
20260905182520 101 0.0 3.5 0.00 0.00 0.00 42 1011.4
20260905181538 101 0.0 1.7 0.00 0.00 0.00 46 1011.6
20260905180520 101 0.0 0.9 0.00 0.00 0.00 43 1012.0
20260905175520 100 293 0.9 5.2 0.00 0.00 0.00 44 1012.1
20260905174540 102 0.0 2.6 0.00 0.00 0.00 43 1012.2
20260905173518 102 0.0 0.9 0.00 0.00 0.00 42 1012.3
20260905172520 101 0.0 0.0 0.00 0.00 0.00 44 1012.3
20260905171520 100 0.0 0.0 0.00 0.00 0.00 46 1012.3
20260905170520 99 0.0 0.0 0.00 0.00 0.00 46 1012.4
20260905165520 97 0.0 0.9 0.00 0.00 0.00 52 1012.6
20260905164520 97 293 0.9 2.6 0.00 0.00 0.00 54 1012.9
20260905163520 97 0.0 0.9 0.00 0.00 0.00 52 1013.2
20260905162620 96 0.0 2.6 0.00 0.00 0.00 53 1013.3
20260905161520 95 0.0 0.0 0.00 0.00 0.00 54 1013.4
20260905160519 95 0.0 3.5 0.00 0.00 0.00 56 1013.5
20260905155520 93 0.0 0.9 0.00 0.00 0.00 58 1013.5
20260905154520 93 270 0.9 3.5 0.00 0.00 0.00 61 1013.7
20260905153520 92 0.0 0.0 0.00 0.00 0.00 62 1013.8
20260905152539 92 0.0 0.9 0.00 0.00 0.00 61 1013.9
20260905151520 91 0.0 0.9 0.00 0.00 0.00 63 1013.9
20260905150520 90 0.0 0.9 0.00 0.00 0.00 64 1014.0
20260905145519 89 0.0 0.0 0.00 0.00 0.00 70 1014.0
20260905144520 88 0.0 0.9 0.00 0.00 0.00 70 1013.9
20260905143520 86 0.0 0.9 0.00 0.00 0.00 71 1014.0
20260905142519 85 0.0 0.0 0.00 0.00 0.00 72 1014.0
20260905141539 84 0.0 0.0 0.00 0.00 0.00 71 1014.2
20260905140519 83 0.0 0.0 0.00 0.00 0.00 69 1014.3
20260905135520 82 0.0 0.0 0.00 0.00 0.00 65 1014.3
20260905134520 81 0.0 0.0 0.00 0.00 0.00 50 1014.5
20260905133519 80 0.0 0.0 0.00 0.00 0.00 46 1014.4
20260905132520 79 0.0 0.0 0.00 0.00 0.00 32 1014.4
20260905131519 77 0.0 2.6 0.00 0.00 0.00 24 1014.2
20260905130519 76 0.0 1.7 0.00 0.00 0.00 11 1014.1
20260905125519 76 0.0 0.9 0.00 0.00 0.00 1 1014.0
20260905124540 75 0.0 0.0 0.00 0.00 0.00 1 1014.0
20260905123540 74 0.0 0.0 0.00 0.00 0.00 1 1013.9
20260905122519 74 0.0 0.0 0.00 0.00 0.00
20260905122110 0 0.0 0.0 0.00 0.00 0.00
20260905121019 0 0.0 0.0 0.00 0.00 0.00
20260905120126 0 0.0 0.0 0.00 0.00 0.00
20260905115019 0 0.0 0.0 0.00 0.00 0.00
20260905114020 0 0.0 0.0 0.00 0.00 0.00
20260905113601 71 0.0 0.0 0.00 0.00 0.00 97 1013.7
20260905113102 71 0.0 0.0 0.00 0.00 0.00 97 1013.7
20260905112519 71 0.0 0.0 0.00 0.00 0.00 97 1013.8
20260905111519 72 0.0 0.0 0.00 0.00 0.00 97 1013.6
20260905110539 72 0.0 0.0 0.00 0.00 0.00
20260905110144 0 0.0 0.0 0.00 0.00 0.00 1011.7
20260905110022 0 0.0 0.0 0.00 0.00 0.00
20260905105039 0 0.0 0.0 0.00 0.00 0.00
20260905104519 0 0.0 0.0 0.00 0.00 0.00
20260905103521 0 0.0 0.0 0.00 0.00 0.00
20260905102519 0 0.0 0.0 0.00 0.00 0.00
20260905101642 0 0.0 0.0 0.00 0.00 0.00
20260905101156 0 0.0 0.0 0.00 0.00 0.00
20260905100019 0 0.0 0.0 0.00 0.00 0.00
20260905095128 0 0.0 0.0 0.00 0.00 0.00
20260905094552 0 0.0 0.0 0.00 0.00 0.00
20260905093519 0 0.0 0.0 0.00 0.00 0.00
20260905092611 0 0.0 0.0 0.00 0.00 0.00
20260905092026 0 0.0 0.0 0.00 0.00 0.00
20260905091019 0 0.0 0.0 0.00 0.00 0.00
20260905090113 0 0.0 0.0 0.00 0.00 0.00
20260905090004 0 210 0.0 0.0 0.00 0.00 0.00 1011.5
20260905085633 0 0.0 0.0 0.00 0.00 0.00
20260905085043 0 0.0 0.0 0.00 0.00 0.00
20260905084039 0 0.0 0.0 0.00 0.00 0.00